Regional Weather Roundup
Issued by NWS

Home | Current Version | Previous Version | Graphics & Text | Print | Product List | Glossary Off
Versions: 1 2 3 4 5 6 7 8 9 10 11 12 13 14 15 16 17 18 19 20 21 22 23 24 25 26 27 28 29 30 31 32 33 34 35 36 37 38 39 40 41 42 43 44 45 46 47 48 49 50

000
ASUS43 KLSX 301507
RWRMO

WEATHER SUMMARY FOR MISSOURI
NATIONAL WEATHER SERVICE SPRINGFIELD MO
1000 AM CDT TUE JUN 30 2015

NOTE: "FAIR" INDICATES FEW OR NO CLOUDS BELOW 12,000 FEET WITH NO
       SIGNIFICANT WEATHER AND/OR OBSTRUCTIONS TO VISIBILITY.
       CURRENT SKY AND/OR WEATHER CONDITIONS ARE NOT AVAILABLE FOR
       CHILLICOTHE AND FARMINGTON.

MOZ001>031-035>038-043-044-053-054-301600-
...NORTHERN AND WESTERN MISSOURI...

CITY           SKY/WX    TMP DP  RH WIND       PRES   REMARKS
KANSAS CTY INT PTSUNNY   78  65  63 NW8       29.95F
KANSAS C DTWN  SUNNY     81  66  60 NW5       29.93F
LEE`S SUMMIT   SUNNY     78  65  63 W6        29.96S
ST JOSEPH      SUNNY     78  67  68 CALM      29.95S
CHILLICOTHE      N/A     77  67  71 NW6       29.93S
KIRKSVILLE     SUNNY     73  64  73 W9        29.92S

$$
MOZ066>068-077>081-088>096-101>105-301600-
...SOUTHWEST MISSOURI...

CITY           SKY/WX    TMP DP  RH WIND       PRES   REMARKS
SPRINGFIELD    MOSUNNY   78  64  61 W9        30.00S
JOPLIN         MOSUNNY   77  67  71 W5        30.00S

$$
MOZ032>034-039>042-045>050-055>058-069>072-301600-
...CENTRAL MISSOURI...

CITY           SKY/WX    TMP DP  RH WIND       PRES   REMARKS
COLUMBIA       SUNNY     74  68  81 SW6       29.94R
JEFFERSON CITY SUNNY     74  67  78 SW6       29.93S
ROLLA          SUNNY     73  68  84 SW7       29.95S
SEDALIA        MOSUNNY   79  65  62 W7        29.95S
WHITEMAN AFB   PTSUNNY   77  67  70 W6        29.94R
WARRENSBURG    PTSUNNY   77  64  65 W6        29.94F
OSAGE BEACH      N/A     75  64  69 W6        29.93F

$$
MOZ051-052-059>065-301600-
...EAST CENTRAL MISSOURI...

CITY           SKY/WX    TMP DP  RH WIND       PRES   REMARKS
ST LOUIS INTL  MOSUNNY   78  66  66 W8        29.92R
SPIRIT OF STL  CLOUDY    75  69  81 W8        29.91R
ST CHARLES     SUNNY     75  67  76 W7        29.90R

$$
MOZ072>076-082>087-097>100-106>115-301600-
...SOUTH CENTRAL AND SOUTHEAST MISSOURI...

CITY           SKY/WX    TMP DP  RH WIND       PRES   REMARKS
CAPE GIRARDEAU SUNNY     77  68  73 W7        29.92R
FARMINGTON     SUNNY     73  66  78 W5        29.98S
WEST PLAINS    SUNNY     74  65  73 W8        30.00S

$$



USA.gov is the U.S. government's official web portal to all federal, state and local government web resources and services.